Flag for Switzerland Weather past 2 weeks in Bern, Bern, Switzerland

Now
54 °F

Scattered clouds.


Feels Like: 53 °F
Forecast: 40 / 62 °F
Wind: 5 mph from North

Location: Bern / Belp

Current Time: Sep 22, 2014 at 9:17:29 PM

Latest Report: Sep 22, 2014 at 8:20 PM


Visibility: N/A

Pressure: 30.15 "Hg

Humidity: 67%

Dew point: 43 °F

Location of BernLocation

Historic Weather in Bern — Graph

°F

Bern temperature yesterday

Maximum temperature yesterday: 70 °F (at 1:20 PM)
Minimum temperature yesterday: 55 °F (at 5:50 AM)
Average temperature yesterday: 61 °F

Past Weeks' High & Low Weather Summary

 TemperatureHumidityPressure
High81 °F (Sep 8, 2:50 PM)100% (Sep 8, 12:50 AM)30.15 "Hg (Sep 8, 12:50 AM)
Low43 °F (Sep 14, 6:20 AM)47% (Sep 16, 2:50 PM)29.86 "Hg (Sep 17, 2:50 PM)
Average61 °F83%30.01 "Hg
* Reported Sep 7 7:20 PM — Sep 22 7:50 PM, Bern, Weather by CustomWeather, © 2014

Note: Actual official high and low records may vary slightly from our data, if they occured in-between our weather recording intervals... More about our weather records

Advertising

Bern weather history for previous 24 hours

 ConditionsComfort  
Time TempWeatherWind HumidityBarometerVisibility
7:50 PM
Sep 22
55 °FScattered clouds.5 mph63%30.15 "HgN/A
7:20 PM57 °FScattered clouds.8 mph63%30.12 "HgN/A
6:50 PM57 °FPassing clouds.2 mph63%30.12 "HgN/A
6:20 PM59 °FPassing clouds.7 mph55%30.09 "HgN/A
5:50 PM61 °FPartly sunny.6 mph55%30.09 "HgN/A
5:20 PM63 °FScattered clouds.5 mph52%30.07 "HgN/A
4:50 PM63 °FPassing clouds.5 mph56%30.07 "HgN/A
4:20 PM61 °FPassing clouds.5 mph63%30.07 "HgN/A
3:50 PM63 °FScattered clouds.3 mph56%30.09 "HgN/A
3:20 PM61 °FPartly sunny.3 mph59%30.09 "HgN/A
2:50 PM61 °FPartly sunny.8 mph59%30.09 "HgN/A
2:20 PM61 °FScattered clouds.7 mph59%30.09 "HgN/A
1:50 PM61 °FPassing clouds.8 mph63%30.09 "HgN/A
1:20 PM59 °FScattered clouds.7 mph63%30.12 "HgN/A
12:50 PM61 °FScattered clouds.3 mph63%30.12 "HgN/A
12:20 PM59 °FPassing clouds.5 mph63%30.12 "HgN/A
11:50 AM59 °FPassing clouds.7 mph63%30.12 "HgN/A
11:20 AM57 °FPartly sunny.3 mph72%30.12 "HgN/A
10:50 AM57 °FPartly sunny.2 mph77%30.15 "HgN/A
10:20 AM55 °FBroken clouds.1 mph77%30.12 "HgN/A
9:50 AM55 °FPartly sunny.2 mph77%30.12 "HgN/A
9:20 AM55 °FPartly sunny.2 mph77%30.12 "HgN/A
8:50 AM54 °FPartly sunny.2 mph82%30.12 "HgN/A
8:20 AM54 °FPartly sunny.2 mph88%30.12 "HgN/A
7:50 AM54 °FPartly cloudy.1 mph88%30.12 "HgN/A
7:20 AM54 °FPartly cloudy.2 mph94%30.12 "Hg6 mi
6:50 AM54 °FPassing clouds.3 mph100%30.12 "HgN/A
6:20 AM54 °FPartly cloudy.1 mph94%30.09 "HgN/A
5:50 AM54 °FPartly cloudy.1 mph94%30.09 "HgN/A
5:20 AM55 °FPassing clouds.1 mph94%30.09 "HgN/A
4:50 AM55 °FPartly cloudy.1 mph88%30.09 "HgN/A
4:20 AM55 °FMostly cloudy.2 mph94%30.09 "HgN/A
3:50 AM55 °FOvercast.2 mph94%30.09 "HgN/A
3:20 AM55 °FPartly cloudy.1 mph94%30.09 "HgN/A
2:50 AM55 °FPartly cloudy.2 mph94%30.09 "HgN/A
2:20 AM55 °FLight rain. Partly cloudy.3 mph100%30.09 "HgN/A
1:50 AM55 °FLots of rain. Partly cloudy.3 mph100%30.09 "Hg4 mi
1:20 AM55 °FPartly cloudy.5 mph100%30.09 "HgN/A
12:50 AM55 °FSprinkles. Partly cloudy.6 mph100%30.09 "Hg4 mi
12:20 AM55 °FPassing clouds.6 mph94%30.09 "HgN/A
11:50 PM
Sep 21
57 °FSprinkles. Passing clouds.6 mph94%30.09 "HgN/A
11:20 PM57 °FPartly cloudy.5 mph94%30.09 "HgN/A
10:20 PM57 °FPartly cloudy.1 mph94%30.09 "HgN/A
9:50 PM57 °FPartly cloudy.3 mph94%30.09 "HgN/A
9:20 PM57 °FPartly cloudy.5 mph94%30.09 "HgN/A
Weather by CustomWeather, © 2014

See weather overviewHow to use our weather pages